Date String (YYYY-MM-DD hh:mm:ss) UTC,Instrument flags,Ambient pressure (hPa),Sample flow (lpm),Bypass flow (lpm),Sample temperature (°C),Ambient temperature (°C),ASC tube jacket temperature (°C),LED temperature (°C),Box temperature (°C),Sample RH (%),Span deviation,Mass concentration (μg/m³),Mass concentration (μg/m³),Mass concentration (μg/m³)
DateTimeUTC,F1_M11,P_M11,Q1_M11,Q2_M11,T1_M11,T2_M11,T3_M11,T4_M11,T5_M11,U1_M11,ZSPAN_M11,X0_M11,X2_M11,X1_M11
2022-02-05 19:00:00,,0825.5,5.01,0.00,22.1,21.4,00.0,31.2,23.8,07.6,0000.0,0000.90,0000.52,0000.37
2022-02-05 19:01:00,,0825.5,5.00,0.00,22.2,22.3,00.0,31.3,24.1,07.5,0000.0,0000.86,0000.52,0000.38
2022-02-05 19:02:00,,0825.5,4.98,0.00,22.4,23.0,00.0,31.3,24.4,07.2,0000.0,0000.84,0000.53,0000.39
2022-02-05 19:03:00,,0825.5,5.00,0.00,22.5,22.9,00.0,31.3,24.4,06.9,0000.0,0000.84,0000.53,0000.39
2022-02-05 19:04:00,,0825.5,5.02,0.00,22.4,22.6,00.0,31.3,24.3,07.0,0000.0,0000.90,0000.55,0000.39
2022-02-05 19:05:00,,0825.5,4.99,0.00,22.4,22.3,00.0,31.4,24.2,07.1,0000.0,0000.92,0000.56,0000.39
2022-02-05 19:06:00,,0825.5,5.00,0.00,22.4,22.2,00.0,31.4,24.1,07.0,0000.0,0000.85,0000.56,0000.40
2022-02-05 19:07:00,,0825.4,5.00,0.00,22.4,22.0,00.0,31.3,24.0,07.6,0000.0,0000.85,0000.56,0000.40
2022-02-05 19:08:00,,0825.3,5.00,0.00,22.4,21.9,00.0,31.3,24.0,07.1,0000.0,0000.86,0000.56,0000.40
2022-02-05 19:09:00,,0825.4,5.00,0.00,22.3,21.8,00.0,31.3,23.8,07.0,0000.0,0000.81,0000.55,0000.41
2022-02-05 19:10:00,,0825.4,4.99,0.00,22.3,21.7,00.0,31.3,23.8,07.1,0000.0,0000.78,0000.53,0000.41
2022-02-05 19:11:00,,0825.4,4.99,0.00,22.3,21.7,00.0,31.3,23.8,06.9,0000.0,0000.72,0000.51,0000.41
2022-02-05 19:12:00,,0825.4,5.02,0.00,22.3,21.6,00.0,31.3,23.7,07.3,0000.0,0000.71,0000.51,0000.42
2022-02-05 19:13:00,,0825.5,5.00,0.00,22.2,21.5,00.0,31.3,23.7,07.4,0000.0,0000.71,0000.51,0000.42
2022-02-05 19:14:00,,0825.5,4.99,0.00,22.2,21.4,00.0,31.3,23.6,07.3,0000.0,0000.71,0000.50,0000.41
2022-02-05 19:15:00,,0825.5,5.00,0.00,22.2,21.4,00.0,31.3,23.7,07.4,0000.0,0000.65,0000.48,0000.41
2022-02-05 19:16:00,,0825.5,5.00,0.00,22.2,21.4,00.0,31.3,23.7,07.5,0000.0,0000.62,0000.47,0000.41
2022-02-05 19:17:00,,0825.5,5.00,0.00,22.2,21.4,00.0,31.3,23.7,07.2,0000.0,0000.61,0000.46,0000.41
2022-02-05 19:18:00,,0825.6,4.99,0.00,22.2,21.4,00.0,31.2,23.8,07.9,0000.0,0001.05,0000.48,0000.40
2022-02-05 19:19:00,,0825.5,5.00,0.00,22.2,21.4,00.0,31.2,23.7,07.7,0000.0,0001.09,0000.47,0000.40
2022-02-05 19:20:00,,0825.5,5.01,0.00,22.2,21.4,00.0,31.2,23.8,07.8,0000.0,0001.09,0000.46,0000.40
2022-02-05 19:21:00,,0825.5,5.00,0.00,22.2,21.4,00.0,31.2,23.8,07.4,0000.0,0001.16,0000.46,0000.39
2022-02-05 19:22:00,,0825.5,5.00,0.00,22.2,21.4,00.0,31.2,23.7,07.7,0000.0,0001.16,0000.46,0000.40
2022-02-05 19:23:00,,0825.5,4.99,0.00,22.2,21.4,00.0,31.2,23.8,08.0,0000.0,0001.18,0000.47,0000.39
2022-02-05 19:24:00,,0825.5,5.00,0.00,22.2,21.4,00.0,31.2,23.8,08.1,0000.0,0001.17,0000.46,0000.38
2022-02-05 19:25:00,,0825.5,5.01,0.00,22.2,21.4,00.0,31.2,23.8,07.8,0000.0,0001.25,0000.48,0000.38
2022-02-05 19:26:00,,0825.5,4.99,0.00,22.2,21.4,00.0,31.2,23.8,07.6,0000.0,0001.29,0000.48,0000.38
2022-02-05 19:27:00,,0825.5,5.00,0.00,22.2,21.4,00.0,31.2,23.7,07.4,0000.0,0001.30,0000.48,0000.37
2022-02-05 19:28:00,,0825.5,5.01,0.00,22.2,21.4,00.0,31.2,23.7,07.6,0000.0,0001.29,0000.47,0000.37
2022-02-05 19:29:00,,0825.4,5.01,0.00,22.2,21.4,00.0,31.2,23.7,07.7,0000.0,0000.94,0000.47,0000.37
2022-02-05 19:30:00,,0825.4,5.00,0.00,22.2,21.4,00.0,31.2,23.8,07.6,0000.0,0000.93,0000.48,0000.37
2022-02-05 19:31:00,,0825.4,5.00,0.00,22.2,21.4,00.0,31.2,23.8,07.8,0000.0,0000.88,0000.48,0000.37
2022-02-05 19:32:00,,0825.4,4.99,0.00,22.2,21.4,00.0,31.2,23.8,07.4,0000.0,0000.80,0000.47,0000.37
2022-02-05 19:33:00,,0825.4,5.01,0.00,22.2,21.4,00.0,31.2,23.9,07.1,0000.0,0000.84,0000.48,0000.36
2022-02-05 19:34:00,,0825.2,4.99,0.00,22.2,21.3,00.0,31.2,23.9,07.5,0000.0,0000.82,0000.47,0000.35
2022-02-05 19:35:00,,0825.3,5.00,0.00,22.2,21.4,00.0,31.2,23.9,07.4,0000.0,0000.81,0000.46,0000.35
2022-02-05 19:36:00,,0825.3,4.98,0.00,22.3,21.4,00.0,31.2,24.0,07.2,0000.0,0000.80,0000.46,0000.35
2022-02-05 19:37:00,,0825.2,5.01,0.00,22.3,21.4,00.0,31.2,23.9,07.5,0000.0,0000.76,0000.47,0000.37
2022-02-05 19:38:00,,0825.0,4.99,0.00,22.3,21.4,00.0,31.2,23.9,07.4,0000.0,0000.74,0000.47,0000.38
2022-02-05 19:39:00,,0825.0,5.03,0.00,22.3,21.5,00.0,31.2,23.9,07.3,0000.0,0000.76,0000.48,0000.38
2022-02-05 19:40:00,,0824.9,4.99,0.00,22.3,21.4,00.0,31.2,23.9,07.0,0000.0,0000.67,0000.48,0000.39
2022-02-05 19:41:00,,0824.9,5.01,0.00,22.3,21.4,00.0,31.2,23.9,07.5,0000.0,0000.68,0000.47,0000.38
2022-02-05 19:42:00,,0824.9,5.01,0.00,22.3,21.4,00.0,31.2,23.9,07.5,0000.0,0000.82,0000.50,0000.39
2022-02-05 19:43:00,,0824.9,4.99,0.00,22.3,21.4,00.0,31.2,23.9,07.6,0000.0,0000.92,0000.53,0000.39
2022-02-05 19:44:00,,0824.9,5.01,0.00,22.3,21.4,00.0,31.2,23.9,07.4,0000.0,0000.95,0000.54,0000.40
2022-02-05 19:45:00,,0824.9,4.99,0.00,22.3,21.4,00.0,31.2,23.9,07.8,0000.0,0000.95,0000.54,0000.40
2022-02-05 19:46:00,,0824.8,5.01,0.00,22.3,21.4,00.0,31.2,23.9,08.1,0000.0,0001.07,0000.57,0000.41
2022-02-05 19:47:00,,0824.9,5.00,0.00,22.3,21.4,00.0,31.2,23.9,07.5,0000.0,0001.06,0000.57,0000.41
2022-02-05 19:48:00,,0824.9,5.02,0.00,22.3,21.4,00.0,31.2,24.0,07.4,0000.0,0001.07,0000.57,0000.40
2022-02-05 19:49:00,,0824.9,4.98,0.00,22.3,21.4,00.0,31.2,23.9,08.0,0000.0,0001.09,0000.57,0000.40
2022-02-05 19:50:00,,0825.0,5.01,0.00,22.3,21.4,00.0,31.2,23.9,07.7,0000.0,0001.06,0000.56,0000.39
2022-02-05 19:51:00,,0824.9,4.98,0.00,22.2,21.3,00.0,31.2,23.8,07.7,0000.0,0001.02,0000.54,0000.39
2022-02-05 19:52:00,,0824.9,5.01,0.00,22.2,21.3,00.0,31.2,23.8,07.7,0000.0,0001.05,0000.55,0000.39
2022-02-05 19:53:00,,0825.0,4.99,0.00,22.2,21.3,00.0,31.2,23.8,07.8,0000.0,0001.10,0000.56,0000.39
2022-02-05 19:54:00,,0825.0,5.01,0.00,22.2,21.2,00.0,31.2,23.8,08.1,0000.0,0001.15,0000.57,0000.38
2022-02-05 19:55:00,,0825.1,5.00,0.00,22.2,21.1,00.0,31.2,23.8,07.9,0000.0,0001.12,0000.56,0000.38
2022-02-05 19:56:00,,0825.0,4.99,0.00,22.2,21.1,00.0,31.2,23.8,08.0,0000.0,0001.10,0000.55,0000.37
2022-02-05 19:57:00,,0825.0,5.00,0.00,22.2,21.2,00.0,31.2,23.8,08.2,0000.0,0000.99,0000.52,0000.37
2022-02-05 19:58:00,,0824.9,5.01,0.00,22.2,21.2,00.0,31.2,23.8,08.0,0000.0,0000.93,0000.51,0000.38
2022-02-05 19:59:00,,0824.9,4.99,0.00,22.2,21.3,00.0,31.2,23.9,08.3,0000.0,0000.92,0000.51,0000.39
